Powrót do katalogu

COSMOS 839 DEB

AktywnyUNKNOWN
NORAD 10441·DEBRIS·🇷🇺 Russia

Wystrzelony Jul 8, 1976 z Plesetsk Cosmodrome

Loading…

Następne Przeloty (najbliższe 24 godziny)

TLE

ŚwieżeSource: Space-Track

Epoka: Sep 14, 2026, 14:41 UTC

1 10441U 76067S   26257.61201500 -.00000143  00000-0 -55792-3 0  9994
2 10441  65.7381 308.9380 0607116 134.3496  18.8890 12.11962695221083

Śledź COSMOS 839 DEB w czasie rzeczywistym z AllMySat

Download on the App Store